When you browse on this site, cookies collect data to enhance your experience and personalize the content and advertising you see.
Visit our Privacy Policy to learn more. By continuing to use the site, you agree to this use of cookies and data.
  • In Hungary
  • List of Countries
  • For 7 days
  • Water Temperature
  • Satellite Maps
  • Weather Map
  • News
  • Weather Widgets
  • user-avatar
    Login

    Hourly Weather Pozuelo de Alarcon

    Today, 18 November, Sunday

    Time Temperature Precipitation Wind Pressure Humidity
    00:00 +10°C° 0 mm 3 mps 696 mmHg 84%
    01:00 +10°C° 0 mm 3 mps 696 mmHg 85%
    02:00 +10°C° 0 mm 3 mps 696 mmHg 86%
    03:00 +10°C° 0 mm 3 mps 695 mmHg 86%
    04:00 +10°C° 0 mm 4 mps 695 mmHg 86%
    05:00 +10°C° 0 mm 4 mps 695 mmHg 85%
    06:00 +10°C° 0 mm 4 mps 695 mmHg 85%
    07:00 +10°C° 0 mm 4 mps 695 mmHg 83%
    08:00 +9°C° 0 mm 5 mps 694 mmHg 80%
    09:00 +9°C° 0 mm 5 mps 694 mmHg 78%
    10:00 +10°C° 0.1 mm 5 mps 694 mmHg 76%
    11:00 +10°C° 0.1 mm 5 mps 694 mmHg 74%
    12:00 +10°C° 0.1 mm 5 mps 694 mmHg 72%
    13:00 +11°C° 0.5 mm 4 mps 693 mmHg 74%
    14:00 +11°C° 0.5 mm 4 mps 693 mmHg 76%
    15:00 +11°C° 0.5 mm 4 mps 693 mmHg 78%
    16:00 +11°C° 0.6 mm 4 mps 692 mmHg 80%
    17:00 +10°C° 0.6 mm 4 mps 692 mmHg 82%
    18:00 +10°C° 0.6 mm 4 mps 692 mmHg 84%
    19:00 +10°C° 1 mm 4 mps 692 mmHg 84%
    20:00 +9°C° 1 mm 5 mps 693 mmHg 84%
    21:00 +9°C° 1 mm 5 mps 693 mmHg 84%
    22:00 +9°C° 0.7 mm 5 mps 693 mmHg 84%
    23:00 +8°C° 0.7 mm 4 mps 693 mmHg 85%

    Tomorrow, 19 November, Monday

    Time Temperature Precipitation Wind Pressure Humidity
    00:00 +8°C° 0.7 mm 4 mps 692 mmHg 85%
    01:00 +8°C° 0.4 mm 4 mps 692 mmHg 85%
    02:00 +8°C° 0.4 mm 4 mps 692 mmHg 85%
    03:00 +9°C° 0.4 mm 3 mps 692 mmHg 85%
    04:00 +9°C° 0.1 mm 3 mps 692 mmHg 84%
    05:00 +9°C° 0.1 mm 3 mps 692 mmHg 83%
    06:00 +8°C° 0.1 mm 3 mps 691 mmHg 82%
    07:00 +9°C° 0 mm 2 mps 692 mmHg 80%
    08:00 +9°C° 0 mm 2 mps 692 mmHg 78%
    09:00 +11°C° 0 mm 1 mps 692 mmHg 75%
    10:00 +11°C° 0 mm 1 mps 692 mmHg 72%
    11:00 +12°C° 0 mm 1 mps 692 mmHg 69%
    12:00 +13°C° 0 mm 1 mps 692 mmHg 66%
    13:00 +13°C° 0 mm 1 mps 691 mmHg 66%
    14:00 +13°C° 0 mm 2 mps 691 mmHg 65%
    15:00 +13°C° 0 mm 2 mps 691 mmHg 65%
    16:00 +13°C° 0.2 mm 2 mps 690 mmHg 69%
    17:00 +12°C° 0.2 mm 2 mps 690 mmHg 74%
    18:00 +10°C° 0.2 mm 3 mps 690 mmHg 79%
    19:00 +10°C° 0.4 mm 3 mps 690 mmHg 80%
    20:00 +10°C° 0.4 mm 3 mps 690 mmHg 82%
    21:00 +10°C° 0.4 mm 3 mps 691 mmHg 84%
    22:00 +10°C° 0.1 mm 3 mps 690 mmHg 85%
    23:00 +9°C° 0.1 mm 3 mps 690 mmHg 86%

    Day after tomorrow, 20 November, Tuesday

    Time Temperature Precipitation Wind Pressure Humidity
    00:00 +9°C° 0.1 mm 3 mps 690 mmHg 87%
    01:00 +9°C° 0.2 mm 3 mps 690 mmHg 88%
    02:00 +8°C° 0.2 mm 4 mps 690 mmHg 89%
    03:00 +7°C° 0.2 mm 4 mps 689 mmHg 90%
    04:00 +7°C° 0.5 mm 4 mps 689 mmHg 90%
    05:00 +7°C° 0.5 mm 4 mps 689 mmHg 89%
    06:00 +7°C° 0.5 mm 4 mps 688 mmHg 89%
    07:00 +8°C° 0.2 mm 4 mps 689 mmHg 87%
    08:00 +8°C° 0.2 mm 5 mps 689 mmHg 85%
    09:00 +8°C° 0.2 mm 5 mps 689 mmHg 83%
    10:00 +8°C° 0.1 mm 5 mps 689 mmHg 79%
    11:00 +9°C° 0.1 mm 6 mps 689 mmHg 75%
    12:00 +9°C° 0.1 mm 6 mps 689 mmHg 71%
    13:00 +9°C° 0.1 mm 6 mps 689 mmHg 69%
    14:00 +9°C° 0.1 mm 6 mps 689 mmHg 68%
    15:00 +9°C° 0.1 mm 6 mps 689 mmHg 67%
    16:00 +9°C° 0.1 mm 5 mps 689 mmHg 73%
    17:00 +8°C° 0.1 mm 5 mps 689 mmHg 79%
    18:00 +7°C° 0.1 mm 4 mps 689 mmHg 85%
    19:00 +7°C° 0.1 mm 4 mps 690 mmHg 85%
    20:00 +7°C° 0.1 mm 5 mps 690 mmHg 86%
    21:00 +7°C° 0.1 mm 5 mps 691 mmHg 87%
    22:00 +6°C° 0 mm 5 mps 691 mmHg 86%
    23:00 +6°C° 0 mm 5 mps 692 mmHg 86%

    21 November, Wednesday

    Time Temperature Precipitation Wind Pressure Humidity
    00:00 +6°C° 0 mm 4 mps 692 mmHg 86%
    01:00 +5°C° 0 mm 4 mps 692 mmHg 86%
    02:00 +5°C° 0 mm 4 mps 693 mmHg 86%
    03:00 +4°C° 0 mm 4 mps 693 mmHg 87%
    04:00 +4°C° 0 mm 4 mps 693 mmHg 87%
    05:00 +3°C° 0 mm 3 mps 694 mmHg 88%
    06:00 +3°C° 0 mm 3 mps 694 mmHg 88%
    07:00 +4°C° 0 mm 3 mps 695 mmHg 85%
    08:00 +4°C° 0 mm 3 mps 695 mmHg 81%
    09:00 +5°C° 0 mm 3 mps 696 mmHg 77%
    10:00 +7°C° 0 mm 3 mps 696 mmHg 74%
    11:00 +7°C° 0 mm 4 mps 696 mmHg 70%
    12:00 +8°C° 0 mm 4 mps 696 mmHg 66%
    13:00 +8°C° 0.2 mm 4 mps 696 mmHg 68%
    14:00 +8°C° 0.2 mm 5 mps 696 mmHg 69%
    15:00 +8°C° 0.2 mm 5 mps 696 mmHg 71%
    16:00 +7°C° 0 mm 4 mps 696 mmHg 74%
    17:00 +6°C° 0 mm 4 mps 696 mmHg 78%
    18:00 +5°C° 0 mm 3 mps 696 mmHg 81%
    19:00 +5°C° 0.1 mm 3 mps 697 mmHg 83%
    20:00 +5°C° 0.1 mm 3 mps 697 mmHg 85%
    21:00 +5°C° 0.1 mm 3 mps 698 mmHg 87%
    22:00 +5°C° 0.2 mm 3 mps 697 mmHg 88%
    23:00 +4°C° 0.2 mm 3 mps 697 mmHg 90%

    22 November, Thursday

    Time Temperature Precipitation Wind Pressure Humidity
    00:00 +4°C° 0.2 mm 3 mps 697 mmHg 91%
    01:00 +4°C° 0.1 mm 3 mps 697 mmHg 91%
    02:00 +4°C° 0.1 mm 3 mps 697 mmHg 91%
    03:00 +4°C° 0.1 mm 3 mps 697 mmHg 92%
    04:00 +4°C° 0 mm 3 mps 698 mmHg 91%
    05:00 +4°C° 0 mm 3 mps 698 mmHg 90%
    06:00 +3°C° 0 mm 3 mps 698 mmHg 90%
    07:00 +4°C° 0 mm 3 mps 698 mmHg 87%
    08:00 +4°C° 0 mm 4 mps 699 mmHg 84%
    09:00 +5°C° 0 mm 4 mps 699 mmHg 81%
    10:00 +5°C° 0 mm 4 mps 699 mmHg 78%
    11:00 +6°C° 0 mm 4 mps 699 mmHg 75%
    12:00 +6°C° 0 mm 4 mps 699 mmHg 71%
    13:00 +7°C° 0 mm 4 mps 699 mmHg 70%
    14:00 +7°C° 0 mm 4 mps 698 mmHg 68%
    15:00 +8°C° 0 mm 4 mps 698 mmHg 66%
    16:00 +8°C° 0.1 mm 3 mps 699 mmHg 71%
    17:00 +7°C° 0.1 mm 2 mps 699 mmHg 76%
    18:00 +6°C° 0.1 mm 2 mps 699 mmHg 80%
    19:00 +6°C° 0.1 mm 2 mps 700 mmHg 82%
    20:00 +6°C° 0.1 mm 2 mps 700 mmHg 84%
    21:00 +6°C° 0.1 mm 2 mps 700 mmHg 86%
    22:00 +5°C° 0.1 mm 2 mps 701 mmHg 88%
    23:00 +5°C° 0.1 mm 2 mps 701 mmHg 89%

    23 November, Friday

    Time Temperature Precipitation Wind Pressure Humidity
    00:00 +5°C° 0.1 mm 2 mps 701 mmHg 91%
    01:00 +5°C° 0.1 mm 2 mps 701 mmHg 91%
    02:00 +5°C° 0.1 mm 2 mps 701 mmHg 92%
    03:00 +5°C° 0.1 mm 2 mps 701 mmHg 92%
    04:00 +5°C° 0 mm 2 mps 701 mmHg 92%
    05:00 +5°C° 0 mm 2 mps 702 mmHg 92%
    06:00 +5°C° 0 mm 2 mps 702 mmHg 91%
    07:00 +6°C° 0 mm 2 mps 702 mmHg 89%
    08:00 +6°C° 0 mm 2 mps 702 mmHg 87%
    09:00 +7°C° 0 mm 2 mps 703 mmHg 85%
    10:00 +7°C° 0 mm 2 mps 702 mmHg 79%
    11:00 +8°C° 0 mm 2 mps 702 mmHg 74%
    12:00 +9°C° 0 mm 3 mps 702 mmHg 69%
    13:00 +9°C° 0 mm 3 mps 702 mmHg 68%
    14:00 +10°C° 0 mm 2 mps 701 mmHg 67%
    15:00 +10°C° 0 mm 2 mps 701 mmHg 66%
    16:00 +9°C° 0 mm 2 mps 701 mmHg 69%
    17:00 +9°C° 0 mm 2 mps 701 mmHg 72%
    18:00 +8°C° 0 mm 2 mps 701 mmHg 75%
    19:00 +8°C° 0.1 mm 2 mps 701 mmHg 76%
    20:00 +8°C° 0.1 mm 2 mps 701 mmHg 77%
    21:00 +7°C° 0.1 mm 2 mps 701 mmHg 78%
    22:00 +7°C° 0.2 mm 2 mps 701 mmHg 79%
    23:00 +7°C° 0.2 mm 2 mps 700 mmHg 81%
    Show more